Hourly Data Report for June 02, 2021

HALL BEACH A
NUNAVUT
Current Station Operator: NAVCAN

68°46'33.000" N
81°14'33.000" W
9.10 m
2402354
71293
YUX

Download Data

Hourly Data (June 2021)
Hourly Data Report for June 2, 2021
TIME
LST
Temp Definition
°C
Dew Point Definition
°C
Rel Hum Definition
%
Precip. Amount Definition
mm

Wind Dir Definition
10's deg

Wind Spd Definition
km/h
Visibility Definition
km
Stn Press Definition
kPa
Hmdx Definition


Wind Chill Definition


Weather Definition


00:00 -10.0 -11.1 92 0.0 32 22 16.1 100.30   -18 LegendNANA
01:00 -11.5 -12.7 91 0.0 33 22 16.1 100.29   -20 LegendNANA
02:00 -11.7 -12.9 91 0.0 32 24 16.1 100.26   -21 LegendNANA
03:00 -12.1 -13.4 90 0.0 33 22 16.1 100.25   -21 LegendNANA
04:00 -12.1 -13.7 88 0.0 32 26 16.1 100.25   -22 LegendNANA
05:00 -11.6 -13.4 87 0.0 33 22 16.1 100.25   -20 LegendNANA
06:00 -10.4 -12.3 86 0.0 33 21 16.1 100.25   -19 LegendNANA
07:00 -8.8 -10.7 86 0.0 33 22 16.1 100.22   -17 LegendNANA
08:00 -7.3 -9.3 86 0.0 34 21 16.1 100.20   -15 LegendNANA
09:00 -6.0 -8.1 85 0.0 34 22 16.1 100.16   -13 LegendNANA
10:00 -4.3 -6.7 83 0.0 35 24 16.1 100.16   -11 LegendNANA
11:00 -3.4 -6.2 81 0.0 35 30 16.1 100.15   -11 LegendNANA
12:00 -2.8 -5.8 80 0.0 36 28 16.1 100.16   -10 LegendNANA
13:00 -2.7 -5.5 81 0.0 36 30 16.1 100.14   -10 LegendNANA
14:00 -2.2 -4.9 82 0.0 36 30 16.1 100.16   -9 LegendNANA
15:00 -1.8 -4.3 83 0.0 36 28 16.1 100.17   -9 LegendNANA
16:00 -1.9 -4.3 84 0.0 36 28 16.1 100.19   -9 LegendNANA
17:00 -1.9 -3.9 86 0.0 35 28 16.1 100.20   -9 LegendNANA
18:00 -1.9 -3.8 87 0.0 35 24 16.1 100.22   -8 LegendNANA
19:00 -2.6 -4.4 87 0.0 36 26 16.1 100.22   -9 LegendNANA
20:00 -3.6 -5.0 90 0.0 35 22 4.8 100.22   -10 Fog
21:00 -4.7 -6.0 91 0.0 35 21 2.4 100.23   -11 Fog
22:00 -5.0 -6.3 91 0.0 35 24 14.5 100.21   -12 LegendNANA
23:00 -5.7 -6.9 91 0.0 34 26 16.1 100.19   -13 LegendNANA

Notes on Data Quality.

Legend

  • E = Estimated
  • M = Missing
  • NA = Not Available*
  • [empty] = Indicates an unobserved value
Date modified: